Regional Weather Roundup
Issued by NWS

Home | Current Version | Previous Version | Graphics & Text | Print | Product List | Glossary On
Versions: 1 2 3 4 5 6 7 8 9 10 11 12 13 14 15 16 17 18 19 20 21 22 23 24 25 26 27 28 29 30 31 32 33 34 35 36 37 38 39 40 41 42 43 44 45 46 47 48 49 50
000
ASUS43 KBIS 271801
RWRND

NORTH DAKOTA REGIONAL WEATHER ROUNDUP
NATIONAL WEATHER SERVICE BISMARCK ND
1200 PM CST TUE JAN 27 2015

NOTE: "FAIR" INDICATES FEW OR NO CLOUDS BELOW 12,000 FEET WITH NO
SIGNIFICANT WEATHER AND/OR OBSTRUCTIONS TO VISIBILITY.


NDZ001>003-009>011-017-271900-
NORTHWEST NORTH DAKOTA

CITY           SKY/WX    TMP DP  RH WIND       PRES   REMARKS
WILLISTON      PTSUNNY   42  34  73 S6        29.85R
6HR MIN TEMP:  28; 6HR MAX TEMP:  42;

MINOT          PTSUNNY   41  33  73 SE5       29.81F
MINOT AFB      PTSUNNY   40  39  99 S7        29.81F
$$

NDZ018>021-031>035-040>046-271900-
SOUTHWEST NORTH DAKOTA

CITY           SKY/WX    TMP DP  RH WIND       PRES   REMARKS
BISMARCK       MOSUNNY   42  32  67 S6        29.89F
6HR MIN TEMP:  29; 6HR MAX TEMP:  42;

DICKINSON      MOSUNNY   56  35  45 W12       29.84F
GARRISON         N/A     38  33  82 S7        29.84S
6HR MIN TEMP:  28; 6HR MAX TEMP:  38;

HETTINGER ARPT MOSUNNY   54  35  48 W10       29.89F
$$

NDZ004>008-012>016-024-026-027-054-271900-
NORTHEAST NORTH DAKOTA

CITY           SKY/WX    TMP DP  RH WIND       PRES   REMARKS
GRAND FORKS    CLOUDY    29  27  92 S14       30.03F FOG     WCI  18
DEVILS LAKE    MOSUNNY   34  30  86 S16       29.91S
$$

NDZ022-023-025-028>030-036>039-047>053-271900-
SOUTHEAST NORTH DAKOTA

CITY           SKY/WX    TMP DP  RH WIND       PRES   REMARKS
FARGO          CLOUDY    30  28  92 SE16      30.06F FOG     WCI  19
6HR MIN TEMP:  27; 6HR MAX TEMP:  31; 6HR PCP: TRACE;

JAMESTOWN      MOSUNNY   36  33  89 S16       29.94F
$$




USA.gov is the U.S. government's official web portal to all federal, state and local government web resources and services.